STARLINK-31147 (58681 NORAD) Tracking and Keplerian Element Data

This shows tracking and keplerian element data for the satellite.

Feedback or suggestion? Click here.




ElementValue
Catalog58681
NameSTARLINK-31147
Epoch Orbit348
Epoch Day12.91667824
Epoch Year2024
RAAN204.0941
Inclination42.9999
Eccentricity0.0002207
Argument of Perigee282.5786
Mean Anonmoly316.0531
Mean Motion15.74010874
Decay Rate-0.01526028
L11 58681U 23211Q 24012.91667824 -.01526028 00000+0 -11846-1 0 9995
L22 58681 42.9999 204.0941 0002207 282.5786 316.0531 15.74010874 3482



Live tracking and technical data element details for STARLINK-31147 (NORAD 58681). STARLINK-31147 can be tracked NOW for your location showing map with azimuth and elevation plus other details from your city location.







IsCatalogInMostPopularTable: catalog: 58681, numindb: 25
Update: records affected: 1



GetName: 58681 STARLINK-31147

Hit Count: updated at: Wed, 17 Apr 2024 03:27:09 GMT